www.pogodaiklimat.ru

Погода и климат >> Архив погоды >> Южная Африка >> Vioolsdrif


ПОГОДА в Vioolsdrif

  • Прогноз погоды в Vioolsdrif
  • Монитор погоды в Vioolsdrif
  • Климат города

АРХИВ ПОГОДЫ в Vioolsdrif

Время (UTC), дата Ветер
(напр.,м/с)
 
Видим.   Явления Облачность Т
(С)
Тd
(С)
f
(%)
Тe
(С)
Тes
(С)
Комфортность P
(гПа)
Po
(гПа)
Тmin
(С)
Tmax
(С)
R
(мм)
R24
(мм)
S
(см)
03 9.07 Ю 1 н/о н/о +15.6 +4.4 47 +16 +16 860.6 1002.5 +15.1 +29.0
06 9.07 Ю 2 н/о н/о +15.1 +5.1 51 +15 +15 860.8 1003.1 +14.6
09 9.07 Ю 2 н/о н/о +22.8 +5.9 33 +23 +23 комфорт 865.6 1004.1 +14.5 +22.8
12 9.07 В 1 н/о н/о +26.5 +6.2 27 +26 +26 жарко 864.7 1001.1 +14.5 +27.0
15 9.07 ЮЗ 1 н/о н/о +28.1 +5.3 23 +27 +27 жарко 864.6 1000.1 +26.0 +29.3
18 9.07 Ю 4 н/о н/о +23.9 +5.9 31 +24 +24 комфорт 863.3 1001.0 +23.9 +29.3
21 9.07 Ю 3 н/о н/о +21.3 +5.8 36 +22 +22 комфорт 863.1 1002.2 +21.2 +29.3
00 10.07 Ю 3 н/о н/о +18.9 +6.1 43 +20 +20 862.1 1002.4 +18.2 +29.3
03 10.07 Ю 3 н/о н/о +17.4 +7.5 52 +17 +17 861.1 1002.1 +15.6 +29.3
06 10.07 СЗ 2 н/о н/о +13.8 +6.7 62 +14 +14 860.9 1003.9 +13.4
09 10.07 ЮВ 2 н/о н/о +21.9 +7.1 38 +23 +23 комфорт 865.2 1004.2 +13.4 +22.1
12 10.07 ЮВ 1 н/о н/о +27.3 +6.4 26 +27 +27 жарко 864.9 1000.9 +13.4 +27.8
15 10.07 Ю 1 н/о н/о +28.6 +3.7 20 +27 +27 жарко 864.1 999.3 +26.9 +29.7
18 10.07 Ю 2 н/о н/о +23.3 +4.9 30 +23 +23 комфорт 861.7 999.5 +23.3 +29.7
21 10.07 Ю 4 н/о н/о +21.8 +4.5 32 +22 +22 комфорт 861.8 1000.4 +21.8 +29.7
00 11.07 Ю 2 н/о н/о +18.5 +5.4 42 +19 +19 860.0 1000.2 +17.4 +29.7
03 11.07 ЮВ 2 н/о н/о +16.3 +4.7 46 +17 +17 858.3 999.6 +15.9 +29.7
06 11.07 ЮВ 1 н/о н/о +15.1 +3.3 45 +16 +16 859.0 1001.0 +15.1
09 11.07 Ю 2 н/о н/о +23.6 +1.4 23 +23 +23 комфорт 862.9 1000.7 +14.7 +23.6
12 11.07 СЗ 2 н/о н/о +30.0 +0.9 15 +27 +27 жарко 862.5 996.9 +14.7 +30.3
15 11.07 СЗ 3 н/о н/о +30.4 -0.7 13 +27 +27 жарко 860.8 994.8 +30.1 +32.0
18 11.07 З 3 н/о н/о +26.5 +0.5 18 +25 +25 комфорт 859.3 995.2 +26.5 +32.0
21 11.07 СЗ 3 н/о н/о +21.5 +0.8 25 +21 +21 комфорт 858.6 997.1 +21.2 +32.0
00 12.07 ЮВ 2 н/о н/о +18.3 +0.1 29 +19 +19 857.1 997.1 +17.8 +32.0
03 12.07 Ю 3 н/о н/о +17.7 -0.9 28 +18 +18 855.6 995.7 +15.4 +32.0
06 12.07 Ю 3 н/о н/о +16.2 -1.2 30 +16 +16 856.8 997.9 +14.9
09 12.07 СЗ 1 н/о н/о +21.6 -0.2 23 +21 +21 комфорт 859.6 998.1 +14.9 +21.6
12 12.07 СВ 2 н/о н/о +25.8 -0.8 17 +24 +24 комфорт 858.7 994.9 +14.9 +26.4
15 12.07 Ю 4 н/о н/о +23.1 +6.1 33 +24 +24 комфорт 856.8 994.3 +23.1 +26.9
18 12.07 ЮЗ 8 н/о н/о +17.1 +8.8 58 +16 +16 856.8 997.5 +17.1 +26.9
21 12.07 Ю 2 н/о н/о +15.2 +6.0 54 +15 +15 858.2 1000.0 +15.2 +26.9
00 13.07 Ю 2 н/о н/о +15.1 +6.7 57 +15 +15 858.7 1000.7 +14.7 +26.9
03 13.07 Ю 3 н/о н/о +14.5 +4.5 51 +14 +14 858.5 1000.8 +14.5 +26.9
06 13.07 Ю 3 н/о н/о +12.9 +3.8 54 +12 +12 859.5 1002.8 +12.9
09 13.07 ЮВ 3 н/о н/о +16.5 +1.1 35 +16 +16 862.6 1004.3 +12.9 +16.9
12 13.07 ЮВ 4 н/о н/о +18.7 -0.5 27 +19 +19 862.6 1003.0 +12.9 +18.9
15 13.07 Ю 5 н/о н/о +17.9 -2.2 25 +18 +18 861.7 1002.5 +17.7 +19.2
18 13.07 ЮЗ 4 н/о н/о +15.0 +2.2 42 +14 +14 862.5 1005.0 +15.0 +19.2
21 13.07 ЮВ 3 н/о н/о +13.2 +3.9 53 +12 +12 862.6 1006.2 +13.2 +19.2
00 14.07 Ю 1 н/о н/о +11.3 +3.6 59 +11 +11 862.1 1006.7 +11.3 +19.2
03 14.07 Ю 4 н/о н/о +11.4 +0.8 48 +10 +10 862.4 1007.0 +10.8 +19.2
06 14.07 Ю 4 н/о н/о +10.3 +2.2 57 +8 +8 863.1 1008.5 +9.8
09 14.07 штиль 0 н/о н/о +16.5 +2.2 38 +17 +17 867.2 1009.5 +9.8 +16.5
12 14.07 СВ 2 н/о н/о +17.6 +0.4 31 +18 +18 865.7 1007.1 +9.8 +18.3
15 14.07 В 3 н/о н/о +18.9 -1.9 24 +19 +19 865.2 1005.8 +17.9 +19.6
18 14.07 СВ 1 н/о н/о +16.6 -2.3 27 +18 +18 865.1 1007.0 +16.6 +19.6
21 14.07 СЗ 2 н/о н/о +13.4 -0.5 38 +13 +13 864.1 1007.7 +13.0 +19.6
00 15.07 СЗ 2 н/о н/о +13.4 -0.5 38 +13 +13 864.1 1007.7 +13.0 +19.6
03 15.07 Ю 2 н/о н/о +12.2 -4.8 30 +12 +12 863.2 1007.4 +9.1 +19.6
06 15.07 Ю 5 н/о н/о +12.5 -2.8 34 +11 +11 864.2 1008.4 +9.1
09 15.07 В 4 н/о н/о +17.6 -3.0 24 +17 +17 866.7 1008.2 +9.1 +17.8
12 15.07 В 4 н/о н/о +20.8 -4.9 17 +21 +21 комфорт 866.0 1005.6 +9.1 +21.1
15 15.07 В 3 н/о н/о +20.8 -5.7 16 +21 +21 комфорт 865.2 1004.7 +20.8 +21.9
18 15.07 СВ 3 н/о н/о +19.6 -7.6 15 +20 +20 864.9 1005.1 +19.6 +21.9
21 15.07 СЗ 2 н/о н/о +17.1 -5.2 21 +18 +18 863.5 1004.9 +17.0 +21.9
00 16.07 Ю 4 н/о н/о +16.7 -6.9 19 +16 +16 863.1 1004.7 +15.9 +21.9

 

Местоположение метеостанции Vioolsdrif (Южная Африка): широта -28.70 долгота 17.60 высота над уровнем моря 168 м.

В архиве по умолчанию представлена погода в Vioolsdrif за последнюю неделю. Архивные данные за месяц целиком и за предыдущие месяцы, начиная с января 2011 года, Вы можете получить, выбрав интересующий диапазон дат из раскрывающегося списка и нажав кнопку "Ввод!".


*Определитесь, кто Вы:
робот инопланетянин человек

Внимание! Время в таблицах - всемирное. Для получения местного времени необходимо прибавить поправку, которая в Vioolsdrif равна 2 ч.

Смотрите также архив погоды в соседних городах и на ближайших метеорологических станциях:

Погода в Port Nolloth (Южная Африка) (92 км)
Погода в Alexander Bay (Южная Африка) (106 км)
Погода в Springbok (Южная Африка) (111 км)
Погода в Koingnaas (Южная Африка) (170 км)
Погода в Pofadder (Южная Африка) (180 км)
Погода в Porterville (Южная Африка) (198 км)
Погода в Keetmanshoop (Намибия) (247 км)
Погода в Augrabies Falls (Южная Африка) (268 км)
Погода в Nieuwoudtville (Южная Африка) (327 км)
Погода в Luderitz Diaz Point (Намибия) (337 км)

Пояснения к столбцам:

Ветер - указаны скорость ветра в м/с - средняя за 10 мин, порывы в срок и между сроками (в фигурных скобках) и направление, откуда дует ветер: С - северный, СВ - северо-восточный, В - восточный, ЮВ - юго-восточный, Ю - южный, ЮЗ - юго-западный, З - западный, СЗ - северо-западный.
Видимость - горизонтальная дальность видимости в метрах или километрах. При видимости от 1 до 10 км при отсутствии осадков обычно наблюдается дымка, при ухудшении видимости до 1 км и менее - туман. В сухую погоду видимость может ухудшаться дымом, пылью или мглою.
Явления - указаны атмосферные явления, наблюдавшиеся в срок или в последний час перед сроком; фигурными скобками обозначены явления, наблюдавшиеся между сроками (за 1-3 часа до срока); квадратными скобками обозначены град или гололедные отложения с указанием их диаметра в мм.
Облачность - указаны через наклонную черту общая и нижняя облачность в баллах и высота нижней границы облаков в метрах; квадратными скобками обозначены формы облаков: Ci - перистые, Cs - перисто-слоистые, Cc - перисто-кучевые, Ac - высококучевые, As - высокослоистые, Sc - слоисто-кучевые, Ns - слоисто-дождевые, Cu - кучевые, Cb - кучево-дождевые. Подробнее классификацию облаков см. в Атласе облаков (PDF).
T - Температура воздуха - температура, измеренная на высоте 2 м над землей.
Td - Температура точки росы - температура, при понижении до которой содержащийся в воздухе водяной пар достигнет насыщения.
f - Относительная влажность воздуха - влажноcть воздуха, измеренная на высоте 2 м над землей.
Te - Эффективная температура - температура, которую ощущает одетый по сезону человек в тени. Характеристика душности погоды. При расчете учитывается влияние влажности воздуха и скорости ветра на теплоощущения человека.
Tes - Эффективная температура на солнце - температура, которую ощущает человек, с поправкой на солнечный нагрев. Характеристика знойности погоды. Зависит от высоты солнца над горизонтом, облачности и скорости ветра. Ночью, в пасмурную погоду, а также при ветре 12 м/с и более поправка равна нулю.
P - Атмосферное давление - приведенное к уровню моря атмосферное давление.
Po - Атмосферное давление - измеренное на уровне метеостанции атмосферное давление.
Tmin - Минимальная температура - минимум температуры воздуха на высоте 2 м над землей.
Tmax - Максимальная температура - максимум температуры воздуха на высоте 2 м над землей.
R - Количество осадков - Количество выпавших осадков за период времени, мм. При наведении курсора мыши на число - период времени, за который выпало указанное количество осадков.
R24 - Количество осадков - Количество выпавших осадков за 24 часа, мм.
S - Снежный покров - Высота снежного покрова, см. При наведении курсора мыши на число - состояние снежного покрова и степень покрытия местности в баллах.